Probability
0 0 0 0 0 0 0 0 0 0 0 0 0 0 0 0 0 0 0 0 0 0 0 0 0 0 0 0 0 0 0 0 0 0 0 0 0 0 0 0 0 0 0 0
0 0 0 0 0 0 0 0 0 0 0 0 0 0 0 0 0 0 0 0 0 0 0 0 0 0 0 0 0 0 0 0 0 0 0 0 0 0 0 0 0 0 0 0
0 0 0 0 0 0 0 0 0 0 0 0 0 0 0 0 0 0 0 0 0 0 0 0 0 0 0 0 0 0 0 0 0 0 0 0 0 0 0 0 0 0 0 0
0 0 0 0 0 0 0 0 0 0 0 0 0 0 0 0 0 0 0 0 0 0 0 0 0 0 0 0 0 0 0 0 0 0 0 0 0 0 0 0 0 0 0 0
0 0 0 0 0 0 0 0 0 0 0 0 0 0 0 0 0 0 0 0 0 0 0 0 0 0 0 0 0 0 0 0 0 0 0 0 0 0 0 0 0 0 0 0
0 0 0 0 0 0 0 0 0 0 0 0 0 0 0 0 0 0 0 0 0 0 0 0 0 0 0 0 0 0 0 0 0 0 0 0 0 0 0 0 0 0 0 0
0 0 0 0 0 0 0 0 0 0 0 0 0 0 0 0 0 0 0 0 0 0 0 0 0 0 0 0 0 0 0 0 0 0 0 0 0 0 0 0 0 0 0 0
0 0 0 0 0 0 0 0 0 0 0 0 0 0 0 0 0 0 0 0 0 0 0 0 0 0 0 0 0 0 0 0 0 0 0 0 0 0 0 0 0 0 0 0
0 0 0 0 0 0 0 0 0 0 0 0 0 0 0 0 0 0 0 0 0 0 0 0 0 0 0 0 0 0 0 0 0 0 0 0 0 0 0 0 0 0 0 0
0 0 0 0 0 0 0 0 0 0 0 0 0 0 0 0 0 0 0 0 0 0 0 0 0 0 0 0 0 0 0 0 0 0 0 0 0 0 0 0 0 0 0 0
0 0 0 0 0 0 0 0 0 0 0 0 0 0 0 0 0 0 0 0 0 0 0 0 0 0 0 0 0 0 0 0 0 0 0 0 0 0 0 0 0 0 0 0
0 0 0 0 0 0 0 0 0 0 0 0 0 0 0 0 0 0 0 0 0 0 0 0 0 0 0 0 0 0 0 0 0 0 0 0 0 0 0 0 0 0 0 0
0 0 0 0 0 0 0 0 0 0 0 0 0 0 0 0 0 0 0 0 0 0 0 0 0 0 0 0 0 0 0 0 0 0 0 0 0 0 0 0 0 0 0 0
0 0 0 0 0 0 0 0 0 0 0 0 0 0 0 0 0 0 0 0 0 0 0 0 0 0 0 0 0 0 0 0 0 0 0 0 0 0 0 0 0 0 0 0
0 0 0 0 0 0 0 0 0 0 0 0 0 0 0 0 0 0 0 0 0 0 0 0 0 0 0 0 0 0 0 0 0 0 0 0 0 0 0 0 0 0 0 0
0 0 0 0 0 0 0 0 0 0 0 0 0 0 0 0 0 0 0 0 0 0 0 0 0 0 0 0 0 0 0 0 0 0 0 0 0 0 0 0 0 0 0 0
0 0 0 0 0 0 0 0 0 0 0 0 0 0 0 0 0 0 0 0 0 0 0 0 0 0 0 0 0 0 0 0 0 0 0 0 0 0 0 0 0 0 0 0
0 0 0 0 0 0 0 0 0 0 0 0 0 0 0 0 0 0 0 0 0 0 0 0 0 0 0 0 0 0 0 0 0 0 0 0 0 0 0 0 0 0 0 0
0 0 0 0 0 0 0 0 0 0 0 0 0 0 0 0 0 0 0 0 0 0 0 0 0 0 0 0 0 0 0 0 0 0 0 0 0 0 0 0 0 0 0 0
0 0 0 0 0 0 0 0 0 0 0 0 0 0 0 0 0 0 0 0 0 0 0 0 0 0 0 0 0 0 0 0 0 0 0 0 0 0 0 0 0 0 0 0
0 0 0 0 0 0 0 0 0 0 0 0 0 0 0 0 0 0 0 0 0 0 0 0 0 0 0 0 0 0 0 0 0 0 0 0 0 0 0 0 0 0 0 0
0 0 0 0 0 0 0 0 0 0 0 0 0 0 0 0 0 0 0 0 0 0 0 0 0 0 0 0 0 0 0 0 0 0 0 0 0 0 0 0 0 0 0 0
0 0 0 0 0 0 0 0 0 0 0 0 0 0 0 0 0 0 0 0 0 0 0 0 0 0 0 0 0 0 0 0 0 0 0 0 0 0 0 0 0 0 0 0
0 0 0 0 0 0 0 0 0 0 0 0 0 0 0 0 0 0 0 0 0 0 0 0 0 0 0 0 0 0 0 0 0 0 0 0 0 0 0 0 0 0 0 0
0 0 0 0 0 0 0 0 0 0 0 0 0 0 0 0 0 0 0 0 0 0 0 0 0 0 0 0 0 0 0 0 0 0 0 0 0 0 0 0 0 0 0 0
0 0 0 0 0 0 0 0 0 0 0 0 0 0 0 0 0 0 0 0 0 0 0 0 0 0 0 0 0 0 0 0 0 0 0 0 0 0 0 0 0 0 0 0
0 0 0 0 0 0 0 0 0 0 0 0 0 0 0 0 0 0 0 0 0 0 0 0 0 0 0 0 0 0 0 0 0 0 0 0 0 0 0 0 0 0 0 0
Wind_Speed
6 7 6 7 7 6 6 6 5 4 5 6 5 4 3 2 1 1 1 2 3 4 4 4 5 5 5 5 5 4 4 5 5 4 4 4 4 4 3 3 3 3 2 2
5 4 5 8 9 8 8 7 7 8 8 4 3 3 3 3 3 3 2 1 2 2 3 4 4 4 4 4 4 4 5 5 5 5 5 5 4 4 4 4 4 4 4 3
4 4 5 6 6 7 6 6 7 7 4 3 4 5 5 5 5 4 3 2 2 2 2 2 3 3 3 4 4 4 5 5 5 5 6 6 4 4 4 4 4 4 4 4
5 5 5 0 1 4 5 7 8 7 5 6 5 4 5 5 6 5 4 4 3 2 1 1 2 2 3 3 4 5 5 5 6 6 6 5 5 5 5 4 4 4 5 5
3 4 7 3 3 4 4 5 5 8 7 5 2 2 4 5 6 5 4 4 3 2 2 1 1 1 2 3 3 4 5 5 5 5 5 5 6 6 5 5 5 5 5 5
3 4 6 0 3 2 2 4 2 5 5 5 5 5 3 5 6 5 4 3 3 2 2 1 0 0 1 2 3 3 4 4 4 5 5 5 5 5 5 4 4 4 5 5
6 6 8 2 3 4 4 1 1 4 5 7 7 4 0 3 5 6 5 4 4 4 3 2 1 1 1 1 2 2 2 3 3 4 4 4 4 4 4 4 4 4 4 4
6 7 7 5 7 7 2 2 2 3 5 7 7 4 3 4 5 5 5 5 5 4 3 2 2 2 2 1 1 1 1 2 3 3 3 3 4 4 4 4 4 4 4 5
8 7 1 5 6 3 2 3 3 4 4 5 6 6 6 5 5 6 6 5 5 5 4 3 3 3 3 2 1 0 1 1 2 2 3 3 3 3 3 4 3 4 4 4
9 11 9 9 10 9 8 8 6 5 5 6 7 7 6 6 6 6 6 6 5 5 5 4 4 4 4 2 2 1 1 0 1 2 2 3 3 3 3 3 3 3 4 4
11 10 8 9 10 9 7 7 7 6 6 7 7 7 7 6 6 6 6 6 6 6 6 6 5 5 4 3 3 3 2 1 0 1 2 2 2 2 3 3 4 4 4 4
11 7 7 5 3 4 6 7 7 6 6 6 7 8 7 7 6 6 6 6 6 7 7 6 6 5 5 4 4 3 2 2 1 1 1 2 2 2 2 3 5 6 6 6
10 5 6 7 6 6 7 7 7 7 7 7 7 7 7 6 5 6 6 7 8 8 7 7 6 6 5 5 5 4 3 2 2 1 1 2 2 3 3 3 4 4 6 8
12 8 9 9 8 7 7 7 6 6 7 7 6 6 6 6 5 7 8 8 7 7 7 7 7 6 6 6 6 5 4 3 3 2 2 2 2 2 3 4 4 4 5 8
13 12 11 7 7 7 6 6 6 7 6 6 6 6 6 7 7 7 7 6 6 7 7 7 7 7 6 6 6 5 4 3 3 2 2 2 2 3 3 4 4 4 4 5
8 9 10 11 11 9 7 7 8 8 7 7 6 7 7 7 7 6 6 6 7 8 8 8 8 6 6 7 6 5 4 4 3 3 2 2 2 3 3 3 4 4 4 5
9 10 9 10 11 10 9 9 8 8 7 7 7 6 6 6 6 6 7 7 7 7 7 7 7 6 6 7 6 5 4 4 5 3 3 3 3 3 3 3 4 4 4 5
13 11 10 9 9 9 8 8 8 8 7 7 6 6 7 8 8 8 6 5 5 6 6 6 6 6 7 7 6 4 4 4 4 4 3 3 3 3 3 4 4 5 4 5
11 11 10 10 9 8 8 7 7 7 6 6 6 7 8 8 7 6 5 6 7 7 6 6 8 7 7 7 6 4 4 4 4 4 3 4 4 3 3 3 4 4 4 4
9 8 8 8 7 7 7 6 6 6 6 5 6 6 7 7 6 6 6 7 7 5 4 6 7 6 6 7 7 5 5 5 5 4 4 4 4 4 3 3 4 4 4 4
8 7 7 7 6 6 6 6 5 6 5 6 7 7 7 6 6 6 6 6 5 5 5 8 6 5 5 6 8 5 5 5 5 4 4 4 4 4 4 3 4 4 4 4
6 6 6 6 5 5 5 5 5 6 6 6 6 6 6 6 6 6 7 5 4 6 5 5 5 6 7 7 5 5 5 5 4 4 4 4 4 4 4 4 4 4 4 4
6 6 6 6 6 5 4 4 5 6 6 7 7 7 7 6 5 5 5 4 4 7 5 5 6 9 10 6 5 5 5 5 5 4 4 4 4 4 4 4 4 4 4 4
6 6 5 4 4 4 5 5 4 4 5 5 5 6 6 5 4 5 4 5 8 8 5 6 9 10 9 5 5 5 5 5 5 4 4 4 4 4 4 4 4 4 4 5
5 5 5 5 6 6 6 4 3 4 4 4 5 5 5 4 4 3 3 5 8 7 5 7 10 10 6 5 5 5 5 5 4 4 4 4 4 4 4 4 4 4 4 4
6 6 6 6 6 4 4 4 4 4 4 4 3 3 3 3 3 3 3 5 6 6 5 4 5 7 5 5 5 5 4 4 5 4 4 4 5 4 4 4 5 4 4 4
6 5 4 5 5 5 5 5 5 5 5 5 4 3 3 3 3 4 5 4 5 4 4 4 4 4 4 4 4 4 4 4 4 4 4 4 4 4 4 5 4 4 4 4
Wind_Direction
270 272 266 265 265 246 228 242 248 249 251 257 249 247 253 256 261 287 340 359 2 4 5 7 14 16 22 24 26 30 39 41 39 38 41 44 40 32 28 28 29 28 30 24
275 257 263 264 260 246 241 238 241 255 263 265 233 218 224 228 232 249 273 306 331 348 358 4 8 10 15 20 23 30 39 36 30 33 38 36 32 27 28 27 25 24 24 20
286 315 284 261 244 217 217 221 223 235 243 202 215 218 226 230 228 234 243 251 270 301 335 352 356 359 11 17 26 37 42 37 31 33 35 29 25 26 23 21 20 18 15 14
298 309 257 54 93 217 233 247 234 249 253 226 231 237 236 229 226 227 227 232 240 256 284 330 358 10 17 25 33 37 38 34 29 29 30 25 24 26 20 16 14 11 8 4
278 287 278 271 208 201 227 264 233 237 243 228 212 230 226 207 215 220 220 227 231 235 238 247 358 19 39 40 38 40 34 28 22 20 21 21 21 19 13 13 13 8 1 1
243 264 259 114 128 163 226 256 198 222 225 196 184 225 214 180 199 209 209 210 213 209 208 207 189 92 77 50 35 27 19 17 18 17 18 19 14 9 5 5 5 359 1 360
231 249 267 249 151 168 222 347 125 219 221 197 210 243 51 170 192 200 202 201 197 195 201 209 192 171 136 63 20 1 1 13 19 16 15 11 8 4 359 358 358 356 355 354
206 225 248 152 162 204 266 23 240 238 228 219 230 241 231 210 201 197 196 196 195 194 200 199 188 185 192 220 305 356 14 21 19 13 11 3 360 356 353 353 351 350 349 349
217 235 318 182 217 248 279 259 257 249 240 226 233 236 231 224 214 207 204 199 199 199 197 197 198 203 211 213 202 188 45 22 11 8 2 354 351 349 347 351 348 344 342 342
254 256 250 247 249 250 246 248 257 254 248 231 237 238 233 225 219 213 208 204 199 200 205 207 203 209 218 204 191 203 209 7 360 352 350 349 348 345 341 342 339 336 335 334
250 263 271 253 237 242 244 245 249 249 242 235 234 237 233 228 223 217 209 205 202 206 212 212 204 206 206 199 195 203 207 215 282 320 329 334 337 336 330 333 332 327 326 325
239 232 223 242 228 238 245 246 244 247 249 239 230 234 233 232 226 217 210 204 205 211 214 211 207 208 203 199 202 207 210 221 236 272 306 314 314 314 320 318 334 332 333 330
247 248 245 269 273 255 254 256 256 249 245 247 240 233 230 232 224 216 213 210 211 212 212 210 208 210 203 196 200 209 219 225 231 243 269 293 303 308 312 311 312 325 338 338
239 246 258 251 251 249 250 258 259 256 250 244 241 232 225 225 222 218 218 217 214 212 211 209 210 212 202 196 199 207 217 222 229 235 250 271 283 292 299 308 313 317 328 335
230 228 241 258 259 256 254 250 247 248 247 243 234 227 221 220 224 226 223 213 208 211 213 210 212 212 196 193 199 204 210 216 222 233 242 260 274 285 292 298 302 310 318 326
222 225 238 248 252 251 247 240 241 244 242 240 236 232 230 229 230 227 215 200 201 212 213 211 216 210 190 190 196 203 209 212 222 229 233 246 258 269 278 288 294 301 309 321
220 228 226 235 241 242 239 238 240 244 242 240 240 238 232 226 225 223 218 212 215 219 215 213 213 197 188 191 196 202 204 202 210 225 230 237 248 257 267 276 285 294 300 313
228 234 230 235 240 242 243 241 241 242 242 244 242 232 224 220 224 225 220 211 212 221 219 212 202 189 188 191 195 201 203 204 209 221 228 233 245 253 262 269 279 288 299 306
224 231 234 234 235 235 237 238 238 240 242 237 230 229 229 231 231 228 212 205 210 220 219 200 188 188 191 192 190 198 202 205 211 220 229 237 242 247 255 266 277 285 293 298
221 224 226 226 224 225 232 236 237 240 237 230 230 232 234 233 226 216 210 217 222 221 194 185 187 190 190 189 188 195 201 207 212 217 223 230 239 247 254 264 274 282 285 289
216 214 213 215 222 227 231 233 233 238 237 223 223 230 234 233 220 210 211 227 227 201 188 184 189 190 188 186 187 196 201 206 211 215 220 228 237 244 250 258 267 273 278 284
209 207 210 211 217 230 232 229 231 234 232 227 227 229 229 228 220 220 224 231 213 184 184 188 191 191 188 184 190 195 201 207 212 215 220 226 232 239 246 255 262 267 272 279
208 207 208 210 216 228 236 232 227 226 227 226 224 222 222 223 215 216 229 212 193 189 191 195 192 189 187 187 191 196 202 207 212 216 221 225 230 235 243 251 256 262 268 273
209 211 211 205 196 213 235 236 222 223 228 231 228 223 220 220 224 224 227 192 189 190 198 194 190 191 188 189 191 198 203 207 211 216 221 223 226 233 240 246 252 258 262 268
207 205 201 197 209 223 229 229 228 230 227 232 233 224 218 219 222 214 200 193 190 187 192 193 193 193 191 190 194 200 204 207 209 213 217 223 228 234 239 244 248 255 259 263
209 211 214 216 221 222 215 213 223 227 221 229 236 222 211 206 204 199 190 190 191 190 189 186 188 191 194 193 198 202 205 209 214 218 221 227 232 235 239 244 251 254 258 263
218 220 220 230 229 220 214 213 219 225 218 217 229 218 200 195 194 190 186 185 185 188 188 186 187 192 193 195 200 203 205 208 213 218 221 225 230 234 239 245 250 254 258 261